Buffalo, SD

7:59 AM MDT on March 23, 2017 (GMT -0600)
Buffalo

Weather History for K2WX - June, 2014

Change the Weather History Date:

Tuesday, June 3, 2014

  Actual Average Record
Temperature  
Mean Temperature 60 °F 59 °F  
Max Temperature 71 °F 71 °F 82 °F (2004)
Min Temperature 48 °F 47 °F 33 °F (1998)
Degree Days  
Heating Degree Days 5 7  
Month to date heating degree days 18 21  
Since 1 June heating degree days 18 21  
Since 1 July heating degree days 8222 7835  
Cooling Degree Days 0 1  
Month to date cooling degree days 0 3  
Year to date cooling degree days 30 9  
Since 1 June cooling degree days 0 3  
Growing Degree Days 9 (Base 50)    
Moisture  
Dew Point 52 °F    
Average Humidity 75    
Maximum Humidity 93    
Minimum Humidity 57    
Precipitation  
Precipitation 0.75 in 0.12 in 0.75 in (2014)
Month to date precipitation 0.77 0.35  
Year to date precipitation 5.11 6.39  
Sea Level Pressure  
Sea Level Pressure 29.81 in    
Wind  
Wind Speed 13 mph (ESE)    
Max Wind Speed 28 mph    
Max Gust Speed 32 mph    
T = Trace of Precipitation, MM = Missing Value Source: NWS Daily Summary

Daily Weather History Graph

Daily Weather History Graph

Search for Another Location

Airport or City:

Trip Planner

Search our weather history database for the weather conditions in past years. The results will help you decide how hot, cold, wet, or windy it might be!

Date:

Astronomy

Jun. 03, 2014 Rise Set
Actual Time 5:07 AM MDT 8:37 PM MDT
Civil Twilight 4:30 AM MDT 9:14 PM MDT
Nautical Twilight 3:41 AM MDT 10:03 PM MDT
Astronomical Twilight 2:37 AM MDT 11:08 PM MDT
Moon 10:43 AM MDT (6/3) No Moon Set
Length of Visible Light 16h 44m
Length of Day
15h 30m
Waxing Crescent, 30% of the Moon is Illuminated
Jun 3
Waxing Crescent
Jun 5
First Quarter
Jun 12
Full
Jun 19
Last Quarter
Jun 27
New

Hourly Weather History & Observations

Time (MDT) Temp. Dew Point Humidity Pressure Visibility Wind Dir Wind Speed Gust Speed Precip Events Conditions
12:56 AM 51.1 °F 48.0 °F 89% 29.91 in - ESE 6.9 mph - N/A   Unknown
1:56 AM 48.9 °F 46.9 °F 93% 29.91 in - South 6.9 mph - N/A   Unknown
2:56 AM 50.0 °F 48.0 °F 93% 29.89 in - SE 6.9 mph - N/A   Unknown
3:56 AM 50.0 °F 48.0 °F 93% 29.87 in - East 6.9 mph - N/A   Unknown
4:56 AM 48.9 °F 46.9 °F 93% 29.88 in - NNE 4.6 mph - N/A   Unknown
5:56 AM 48.9 °F 46.9 °F 93% 29.86 in - NE 9.2 mph - N/A   Unknown
6:56 AM 53.1 °F 50.0 °F 89% 29.81 in - East 11.5 mph - N/A   Unknown
7:56 AM 60.1 °F 52.0 °F 75% 29.80 in - SE 19.6 mph - N/A   Unknown
8:56 AM 62.1 °F 53.1 °F 72% 29.79 in - SE 16.1 mph - N/A   Unknown
9:56 AM 68.0 °F 55.0 °F 63% 29.77 in - SE 13.8 mph - N/A   Unknown
10:56 AM 66.9 °F 54.0 °F 63% 29.75 in - East 15.0 mph - N/A   Unknown
11:56 AM 70.0 °F 54.0 °F 57% 29.74 in - ESE 20.7 mph - N/A   Unknown
12:56 PM 61.0 °F 55.0 °F 81% 29.77 in - ESE 20.7 mph - 0.05 in   Unknown
1:56 PM 64.9 °F 57.0 °F 75% 29.75 in - ESE 19.6 mph - N/A   Unknown
2:56 PM 64.9 °F 55.0 °F 70% 29.77 in - ESE 15.0 mph - N/A   Unknown
3:56 PM 63.0 °F 55.9 °F 78% 29.77 in - ENE 13.8 mph - N/A   Unknown
4:56 PM 61.0 °F 57.0 °F 87% 29.81 in - NE 10.4 mph - 0.05 in   Unknown
5:56 PM 59.0 °F 57.0 °F 93% 29.82 in - NNE 21.9 mph - 0.46 in   Unknown
6:56 PM 57.9 °F 55.0 °F 90% 29.81 in - SE 18.4 mph - 0.15 in   Unknown
7:56 PM 57.9 °F 52.0 °F 81% 29.78 in - ESE 10.4 mph - 0.04 in   Unknown
8:56 PM 55.9 °F 51.1 °F 84% 29.77 in - SSE 10.4 mph - N/A   Unknown
9:56 PM 55.9 °F 52.0 °F 87% 29.76 in - South 15.0 mph - N/A   Unknown
10:56 PM 55.0 °F 52.0 °F 89% 29.80 in - SSE 11.5 mph - N/A   Unknown
11:56 PM 54.0 °F 52.0 °F 93% 29.81 in - South 4.6 mph - N/A   Unknown